Regional Weather Roundup
Issued by NWS Midland/Odessa, TX

Home | Current Version | Previous Version | Text Only | Print | Product List | Glossary On
Versions: 1 2 3 4 5 6 7 8 9 10 11 12 13 14 15 16 17 18 19 20 21 22 23 24 25 26 27 28 29 30 31 32 33 34 35 36 37 38 39 40 41 42 43 44 45 46 47 48 49 50
000
ASUS44 KMAF 261410
RWRMAF
MIDLAND AREA WEATHER ROUNDUP
NATIONAL WEATHER SERVICE MIDLAND TX
800 AM CST MON JAN 26 2015

...IN SOUTHWEST TEXAS AND SOUTHEAST NEW MEXICO...

CITY           SKY/WX    TMP DP  RH WIND       PRES   REMARKS
ALPINE         CLOUDY    36  28  72 SW8       30.37R WCI  29
ANDREWS        FAIR      37  28  69 NW6       30.30R WCI  32
ARTESIA        PTCLDY    30  30 100 N8        30.32S WCI  23
BIG SPRING     PTCLDY    33  29  84 CALM      30.32R
CARLSBAD       MOCLDY    33  27  78 N6        30.30R WCI  28
DRYDEN           N/A     42  32  67 NW6       30.28R WCI  38
FORT STOCKTON  MOCLDY    41  30  65 SW7       30.31R WCI  36
GUAD PASS      NOT AVBL
HOBBS          CLEAR     32  27  80 NW6       30.30R WCI  26
MARFA          CLOUDY    30  27  86 NW7       30.33S WCI  23
MIDLAND AIRPK  MOCLDY    38  30  73 W5        30.30R WCI  34
MIDLAND INTL   MOCLDY    38  29  70 CALM      30.29R
ODESSA         CLOUDY    36  28  73 NW6       30.30R WCI  31
PECOS          CLOUDY    32  29  90 W6        30.31S WCI  26
PRESIDIO       FAIR      40  35  81 CALM      30.32R
SEMINOLE       PTCLDY    34  28  79 NW9       30.30S WCI  26
SNYDER         CLEAR    N/A N/A N/A W8        30.27S
WINK           CLOUDY    31  26  82 NW6       30.28R WCI  25
$$
...OTHER STATIONS IN TEXAS...

CITY           SKY/WX    TMP DP  RH WIND       PRES   REMARKS
ABILENE        CLEAR     37  29  72 S6        30.26R WCI  32
AMARILLO       CLEAR     39  29  67 W10       30.23S WCI  32
AUSTIN         PTCLDY    39  34  82 CALM      30.27R
BROWNSVILLE    CLEAR     51  43  74 N5        30.28R
CORPUS CHRISTI MOCLDY    43  40  89 W6        30.28R WCI  39
DALLAS FTW     PTCLDY    37  29  72 SW5       30.21R WCI  33
DEL RIO        MOCLDY    40  36  86 NW7       30.29R WCI  35
EL PASO        CLOUDY    39  27  62 N12       30.30R WCI  32
HOUSTON INT    PTCLDY    49  31  49 W3        30.24R
LUBBOCK        PTCLDY    33  28  81 W9        30.26R WCI  25
SAN ANGELO     MOCLDY    36  31  82 W6        30.28R WCI  31
SAN ANTONIO    MOCLDY    44  35  70 NW5       30.27R
WACO           CLEAR     33  30  88 SW6       30.25R WCI  28
WICHITA FALLS  NOT AVBL
$$
...OTHER LOCATIONS IN NEW MEXICO...

CITY           SKY/WX    TMP DP  RH WIND       PRES   REMARKS
ALAMAGORDO     MOCLDY    32  23  69 N5        30.34R WCI  27
ALBUQUERQUE    MOCLDY    32  23  69 N8        30.37R WCI  25
CANNON AFB     PTCLDY    36  26  67 W6        30.27S WCI  31
CLOVIS         PTCLDY    32  27  80 W10       30.27S WCI  24
HOLLOMAN AFB   CLOUDY    28  26  91 N8        30.32S WCI  20
ROSWELL        CLEAR     30  26  85 NW3       30.32R
RUIDOSO        PTCLDY    36  19  51 W8        30.37R WCI  29
SANTA FE       CLEAR     29  22  75 N21       30.36R WCI  16
TRUTH OR CONSE MOCLDY    35  23  61 NW6       30.34R WCI  30
TUCUMCARI      PTCLDY    33  29  85 W9        30.27S WCI  25
$$


USA.gov is the U.S. government's official web portal to all federal, state and local government web resources and services.